When you browse on this site, cookies collect data to enhance your experience and personalize the content and advertising you see.
Visit our Privacy Policy to learn more. By continuing to use the site, you agree to this use of cookies and data.
  • In Switzerland
  • List of Countries
  • For 7 days
  • Water Temperature
  • Satellite Maps
  • Weather Map
  • Weather Widgets
  • user-avatar
    Login

    Hourly Weather Yanliang

    Today, 17 July, Wednesday

    Time Temperature Precipitation Wind Pressure Humidity
    00:00 +26°C° 0 mm 2 mps 721 mmHg 67%
    01:00 +26°C° 0 mm 2 mps 721 mmHg 68%
    02:00 +25°C° 0.3 mm 2 mps 721 mmHg 72%
    03:00 +25°C° 0.3 mm 2 mps 721 mmHg 76%
    04:00 +25°C° 0.3 mm 2 mps 721 mmHg 79%
    05:00 +24°C° 1 mm 2 mps 721 mmHg 83%
    06:00 +24°C° 1 mm 2 mps 721 mmHg 87%
    07:00 +23°C° 1 mm 2 mps 721 mmHg 91%
    08:00 +24°C° 0.9 mm 2 mps 721 mmHg 90%
    09:00 +24°C° 0.9 mm 3 mps 721 mmHg 89%
    10:00 +24°C° 0.9 mm 3 mps 721 mmHg 89%
    11:00 +23°C° 0.1 mm 4 mps 721 mmHg 87%
    12:00 +23°C° 0.1 mm 4 mps 721 mmHg 85%
    13:00 +23°C° 0.1 mm 4 mps 721 mmHg 83%
    14:00 +23°C° 0.1 mm 4 mps 721 mmHg 80%
    15:00 +25°C° 0.1 mm 3 mps 721 mmHg 77%
    16:00 +25°C° 0.1 mm 3 mps 721 mmHg 74%
    17:00 +24°C° 0 mm 3 mps 721 mmHg 75%
    18:00 +24°C° 0 mm 2 mps 721 mmHg 77%
    19:00 +24°C° 0 mm 2 mps 721 mmHg 78%
    20:00 +24°C° 0 mm 2 mps 721 mmHg 78%
    21:00 +24°C° 0 mm 2 mps 722 mmHg 79%
    22:00 +24°C° 0 mm 2 mps 722 mmHg 79%
    23:00 +24°C° 0 mm 2 mps 722 mmHg 79%

    Tomorrow, 18 July, Thursday

    Time Temperature Precipitation Wind Pressure Humidity
    00:00 +24°C° 0 mm 2 mps 722 mmHg 79%
    01:00 +24°C° 0 mm 2 mps 722 mmHg 78%
    02:00 +24°C° 0 mm 1 mps 721 mmHg 79%
    03:00 +24°C° 0 mm 1 mps 721 mmHg 80%
    04:00 +24°C° 0 mm 1 mps 721 mmHg 81%
    05:00 +24°C° 0 mm 1 mps 721 mmHg 80%
    06:00 +24°C° 0 mm 1 mps 721 mmHg 78%
    07:00 +25°C° 0 mm 1 mps 722 mmHg 77%
    08:00 +25°C° 0 mm 1 mps 722 mmHg 73%
    09:00 +26°C° 0 mm 1 mps 722 mmHg 70%
    10:00 +27°C° 0 mm 1 mps 722 mmHg 67%
    11:00 +28°C° 0 mm 1 mps 722 mmHg 62%
    12:00 +30°C° 0 mm 1 mps 722 mmHg 58%
    13:00 +31°C° 0 mm 1 mps 721 mmHg 54%
    14:00 +31°C° 0 mm 1 mps 721 mmHg 53%
    15:00 +32°C° 0 mm 1 mps 720 mmHg 52%
    16:00 +32°C° 0 mm 1 mps 720 mmHg 51%
    17:00 +31°C° 0 mm 1 mps 720 mmHg 53%
    18:00 +30°C° 0 mm 1 mps 720 mmHg 56%
    19:00 +30°C° 0 mm 1 mps 720 mmHg 59%
    20:00 +29°C° 0 mm 1 mps 721 mmHg 61%
    21:00 +29°C° 0 mm 1 mps 721 mmHg 63%
    22:00 +26°C° 0 mm 0 mps 721 mmHg 64%
    23:00 +28°C° 0 mm 1 mps 721 mmHg 66%

    Day after tomorrow, 19 July, Friday

    Time Temperature Precipitation Wind Pressure Humidity
    00:00 +27°C° 0 mm 1 mps 720 mmHg 67%
    01:00 +27°C° 0 mm 1 mps 720 mmHg 68%
    02:00 +27°C° 0 mm 1 mps 720 mmHg 69%
    03:00 +25°C° 0 mm 0 mps 720 mmHg 69%
    04:00 +24°C° 0 mm 0 mps 720 mmHg 70%
    05:00 +25°C° 0 mm 0 mps 720 mmHg 67%
    06:00 +28°C° 0 mm 1 mps 720 mmHg 64%
    07:00 +29°C° 0 mm 1 mps 721 mmHg 61%
    08:00 +30°C° 0 mm 1 mps 721 mmHg 58%
    09:00 +31°C° 0 mm 1 mps 721 mmHg 54%
    10:00 +33°C° 0 mm 1 mps 721 mmHg 51%
    11:00 +34°C° 0 mm 1 mps 720 mmHg 48%
    12:00 +35°C° 0 mm 2 mps 719 mmHg 45%
    13:00 +36°C° 0 mm 2 mps 719 mmHg 42%
    14:00 +37°C° 0 mm 2 mps 719 mmHg 40%
    15:00 +37°C° 0 mm 1 mps 718 mmHg 38%
    16:00 +37°C° 0 mm 1 mps 718 mmHg 37%
    17:00 +36°C° 0 mm 1 mps 718 mmHg 39%
    18:00 +35°C° 0 mm 1 mps 718 mmHg 42%
    19:00 +34°C° 0 mm 1 mps 719 mmHg 45%
    20:00 +33°C° 0 mm 1 mps 719 mmHg 48%
    21:00 +32°C° 0 mm 1 mps 719 mmHg 51%
    22:00 +31°C° 0 mm 1 mps 719 mmHg 54%
    23:00 +31°C° 0.6 mm 1 mps 719 mmHg 59%

    20 July, Saturday

    Time Temperature Precipitation Wind Pressure Humidity
    00:00 +30°C° 0.6 mm 1 mps 719 mmHg 65%
    01:00 +29°C° 0.6 mm 2 mps 719 mmHg 70%
    02:00 +28°C° 1 mm 2 mps 719 mmHg 73%
    03:00 +28°C° 1 mm 2 mps 718 mmHg 77%
    04:00 +27°C° 1 mm 2 mps 718 mmHg 81%
    05:00 +27°C° 0.1 mm 1 mps 719 mmHg 78%
    06:00 +28°C° 0.1 mm 1 mps 719 mmHg 76%
    07:00 +26°C° 0.1 mm 0 mps 719 mmHg 74%
    08:00 +30°C° 0 mm 1 mps 719 mmHg 66%
    09:00 +32°C° 0 mm 1 mps 719 mmHg 59%
    10:00 +33°C° 0 mm 1 mps 719 mmHg 51%
    11:00 +35°C° 0 mm 1 mps 719 mmHg 46%
    12:00 +37°C° 0 mm 1 mps 718 mmHg 40%
    13:00 +39°C° 0 mm 2 mps 717 mmHg 35%
    14:00 +39°C° 0 mm 2 mps 717 mmHg 33%
    15:00 +40°C° 0 mm 3 mps 717 mmHg 32%
    16:00 +40°C° 0 mm 3 mps 716 mmHg 30%
    17:00 +39°C° 0 mm 3 mps 716 mmHg 34%
    18:00 +37°C° 0 mm 2 mps 717 mmHg 37%
    19:00 +35°C° 0 mm 1 mps 717 mmHg 40%
    20:00 +34°C° 0 mm 1 mps 717 mmHg 43%
    21:00 +33°C° 0 mm 1 mps 718 mmHg 46%
    22:00 +32°C° 0 mm 2 mps 718 mmHg 48%
    23:00 +31°C° 0 mm 1 mps 718 mmHg 50%

    21 July, Sunday

    Time Temperature Precipitation Wind Pressure Humidity
    00:00 +31°C° 0 mm 1 mps 718 mmHg 53%
    01:00 +30°C° 0 mm 1 mps 718 mmHg 55%
    02:00 +30°C° 0 mm 1 mps 717 mmHg 56%
    03:00 +29°C° 0 mm 1 mps 717 mmHg 58%
    04:00 +29°C° 0 mm 1 mps 717 mmHg 60%
    05:00 +30°C° 0 mm 2 mps 718 mmHg 58%
    06:00 +30°C° 0 mm 2 mps 718 mmHg 55%
    07:00 +31°C° 0 mm 2 mps 718 mmHg 53%
    08:00 +34°C° 0 mm 2 mps 718 mmHg 49%
    09:00 +36°C° 0 mm 3 mps 718 mmHg 44%
    10:00 +37°C° 0 mm 3 mps 718 mmHg 40%
    11:00 +38°C° 0 mm 3 mps 718 mmHg 36%
    12:00 +40°C° 0 mm 3 mps 717 mmHg 31%
    13:00 +42°C° 0 mm 3 mps 717 mmHg 27%
    14:00 +41°C° 0 mm 2 mps 717 mmHg 26%
    15:00 +41°C° 0 mm 2 mps 717 mmHg 25%
    16:00 +41°C° 0 mm 2 mps 716 mmHg 25%
    17:00 +40°C° 0 mm 2 mps 717 mmHg 28%
    18:00 +39°C° 0 mm 2 mps 717 mmHg 31%
    19:00 +38°C° 0 mm 3 mps 717 mmHg 34%
    20:00 +37°C° 0 mm 2 mps 717 mmHg 38%
    21:00 +36°C° 0 mm 2 mps 718 mmHg 43%
    22:00 +35°C° 0 mm 2 mps 718 mmHg 47%
    23:00 +33°C° 0 mm 1 mps 718 mmHg 49%

    22 July, Monday

    Time Temperature Precipitation Wind Pressure Humidity
    00:00 +33°C° 0 mm 1 mps 718 mmHg 51%
    01:00 +32°C° 0 mm 1 mps 717 mmHg 52%
    02:00 +32°C° 0 mm 1 mps 717 mmHg 53%
    03:00 +32°C° 0 mm 1 mps 717 mmHg 54%
    04:00 +31°C° 0 mm 1 mps 717 mmHg 55%
    05:00 +31°C° 0 mm 1 mps 718 mmHg 55%
    06:00 +32°C° 0 mm 1 mps 718 mmHg 55%
    07:00 +32°C° 0 mm 1 mps 718 mmHg 55%
    08:00 +32°C° 0 mm 1 mps 718 mmHg 53%
    09:00 +32°C° 0 mm 2 mps 718 mmHg 51%
    10:00 +34°C° 0 mm 2 mps 718 mmHg 50%
    11:00 +34°C° 0.1 mm 2 mps 718 mmHg 49%
    12:00 +35°C° 0.1 mm 2 mps 718 mmHg 48%
    13:00 +35°C° 0.1 mm 3 mps 717 mmHg 47%
    14:00 +36°C° 0 mm 3 mps 717 mmHg 45%
    15:00 +36°C° 0 mm 4 mps 717 mmHg 44%
    16:00 +37°C° 0 mm 4 mps 716 mmHg 43%
    17:00 +35°C° 0 mm 4 mps 716 mmHg 46%
    18:00 +34°C° 0 mm 4 mps 717 mmHg 48%
    19:00 +33°C° 0 mm 3 mps 717 mmHg 51%
    20:00 +31°C° 0 mm 3 mps 717 mmHg 54%
    21:00 +31°C° 0 mm 3 mps 717 mmHg 58%
    22:00 +30°C° 0 mm 3 mps 718 mmHg 61%
    23:00 +29°C° 0 mm 3 mps 718 mmHg 63%
    Show more